Change the Weather History Date:

Wednesday, October 31, 2012

  Actual Average Record
Temperature  
Mean Temperature 68 °F -  
Max Temperature 78 °F 70 °F 82 °F (1997)
Min Temperature 57 °F 47 °F 33 °F (1991)
Cooling Degree Days 2    
Growing Degree Days 18 (Base 50)    
Moisture  
Dew Point 23 °F    
Average Humidity 19    
Maximum Humidity 29    
Minimum Humidity 11    
Precipitation  
Precipitation 0.00 in - - ()
Sea Level Pressure  
Sea Level Pressure 29.99 in    
Wind  
Wind Speed 6 mph (WSW)    
Max Wind Speed 9 mph    
Max Gust Speed -    
Visibility 10 miles    
Events      
Averages and records for this station are not official NWS values.
T = Trace of Precipitation, MM = Missing Value Source: NWS Daily Summary

Daily Weather History Graph

Daily Weather History Graph

Search for Another Location

Airport or City:

Trip Planner

Search our weather history database for the weather conditions in past years. The results will help you decide how hot, cold, wet, or windy it might be!

Date:

Astronomy

Oct. 31, 2012 Rise Set
Actual Time 6:37 AM MST 5:32 PM MST
Civil Twilight 6:11 AM MST 5:57 PM MST
Nautical Twilight 5:43 AM MST 6:26 PM MST
Astronomical Twilight 5:14 AM MST 6:54 PM MST
Moon 6:53 PM MST (10/31) 8:14 AM MST (10/31)
Length of Visible Light 11h 45m
Length of Day
10h 55m
Waning Gibbous, 97% of the Moon is Illuminated
Oct 31
Waning Gibbous
Nov 6
Last Quarter
Nov 13
New
Nov 20
First Quarter
Nov 28
Full

Hourly Weather History & Observations

Time (MST) Temp. Dew Point Humidity Pressure Visibility Wind Dir Wind Speed Gust Speed Precip Events Conditions
12:55 AM 60.8 °F 24.8 °F 25% 29.96 in 10.0 mi WSW 6.9 mph - N/A   Clear
5:55 AM 57.2 °F 23.0 °F 27% 30.00 in 10.0 mi Variable 3.5 mph - N/A   Clear
6:55 AM 57.2 °F 24.8 °F 29% 30.01 in 10.0 mi SW 5.8 mph - N/A   Clear
7:55 AM 62.6 °F 26.6 °F 26% 30.01 in 10.0 mi Variable 2.3 mph - N/A   Clear
8:55 AM 68.0 °F 28.4 °F 23% 30.01 in 10.0 mi Variable 3.5 mph - N/A   Clear
9:55 AM 71.6 °F 24.8 °F 17% 30.01 in 10.0 mi Variable 4.6 mph - N/A   Partly Cloudy
10:55 AM 75.2 °F 24.8 °F 15% 30.00 in 10.0 mi ENE 8.1 mph - N/A   Partly Cloudy
11:55 AM 75.2 °F 23.0 °F 14% 29.96 in 10.0 mi Variable 2.3 mph - N/A   Partly Cloudy
12:55 PM 78.8 °F 23.0 °F 13% 29.93 in 10.0 mi Variable 3.5 mph - N/A   Scattered Clouds
1:55 PM 77.0 °F 26.6 °F 16% 30.10 in 10.0 mi Variable 5.8 mph - N/A   Mostly Cloudy
2:55 PM 77.0 °F 19.4 °F 12% 30.08 in 10.0 mi East 4.6 mph - N/A   Scattered Clouds
3:55 PM 77.0 °F 17.6 °F 11% 30.08 in 10.0 mi East 4.6 mph - N/A   Scattered Clouds
4:55 PM 77.0 °F 17.6 °F 11% 30.08 in 10.0 mi ENE 4.6 mph - N/A   Partly Cloudy
5:55 PM 68.0 °F 21.2 °F 17% 29.94 in 10.0 mi WSW 6.9 mph - N/A   Partly Cloudy
6:55 PM 66.2 °F 21.2 °F 18% 29.95 in 10.0 mi West 8.1 mph - N/A   Partly Cloudy
7:55 PM 66.2 °F 21.2 °F 18% 29.94 in 10.0 mi West 9.2 mph - N/A   Scattered Clouds
8:55 PM 64.4 °F 23.0 °F 21% 29.96 in 10.0 mi West 9.2 mph - N/A   Partly Cloudy
9:55 PM 64.4 °F 24.8 °F 22% 29.95 in 10.0 mi West 8.1 mph - N/A   Partly Cloudy
10:55 PM 62.6 °F 24.8 °F 24% 29.94 in 10.0 mi WSW 6.9 mph - N/A   Partly Cloudy
11:55 PM 60.8 °F 24.8 °F 25% 29.96 in 10.0 mi WSW 6.9 mph - N/A   Clear